TimePDT,TemperatureF,Dew PointF,Humidity,Sea Level PressureIn,VisibilityMPH,Wind Direction,Wind SpeedMPH,Gust SpeedMPH,PrecipitationIn,Events,Conditions,WindDirDegrees,DateUTC
12:43 AM,57.2,-9999,N/A,29.98,10.0,SSW,4.6,-,0.00,,Overcast,210,2012-10-16 07:43:00
12:53 AM,57.0,-9999,N/A,29.90,10.0,SSW,5.8,-,0.00,,Overcast,210,2012-10-16 07:53:00
1:53 AM,57.9,57.9,100,29.90,10.0,SSW,4.6,-,0.01,,Overcast,210,2012-10-16 08:53:00
2:53 AM,57.9,57.9,100,29.88,10.0,SW,8.1,-,0.01,,Overcast,220,2012-10-16 09:53:00
3:53 AM,57.9,57.9,100,29.86,9.0,SW,9.2,-,0.01,Rain,Light Rain,230,2012-10-16 10:53:00
5:38 AM,57.2,57.2,100,29.97,10.0,WSW,8.1,-,N/A,,Overcast,250,2012-10-16 12:38:00
5:53 AM,57.0,57.0,100,29.88,10.0,West,6.9,-,N/A,,Overcast,280,2012-10-16 12:53:00
6:53 AM,57.0,57.0,100,29.91,10.0,West,6.9,-,N/A,,Overcast,270,2012-10-16 13:53:00
7:53 AM,55.9,55.9,100,29.93,10.0,South,4.6,-,N/A,,Mostly Cloudy,190,2012-10-16 14:53:00
8:53 AM,57.0,52.0,83,29.96,10.0,West,4.6,-,N/A,,Mostly Cloudy,270,2012-10-16 15:53:00
9:34 AM,57.2,48.2,72,30.05,10.0,WNW,12.7,25.3,N/A,,Scattered Clouds,300,2012-10-16 16:34:00
9:53 AM,57.9,48.0,70,29.99,10.0,WNW,19.6,26.5,N/A,,Scattered Clouds,290,2012-10-16 16:53:00
10:53 AM,57.0,46.9,69,30.03,10.0,North,10.4,20.7,N/A,,Scattered Clouds,360,2012-10-16 17:53:00
11:53 AM,57.9,43.0,58,30.02,10.0,WNW,16.1,23.0,N/A,,Scattered Clouds,290,2012-10-16 18:53:00
12:53 PM,57.9,39.0,49,30.04,10.0,West,23.0,31.1,N/A,,Scattered Clouds,270,2012-10-16 19:53:00
1:53 PM,57.9,39.0,49,30.05,10.0,NW,8.1,23.0,N/A,,Partly Cloudy,320,2012-10-16 20:53:00
2:53 PM,57.9,35.1,42,30.05,10.0,NW,15.0,-,N/A,,Partly Cloudy,320,2012-10-16 21:53:00
3:53 PM,57.0,34.0,42,30.06,10.0,North,11.5,-,N/A,,Partly Cloudy,350,2012-10-16 22:53:00
4:53 PM,55.0,34.0,45,30.07,10.0,NNW,17.3,23.0,N/A,,Partly Cloudy,340,2012-10-16 23:53:00
5:53 PM,53.1,35.1,50,30.08,10.0,NW,12.7,-,N/A,,Partly Cloudy,320,2012-10-17 00:53:00
6:53 PM,46.9,35.1,63,30.11,10.0,NNW,10.4,-,N/A,,Partly Cloudy,330,2012-10-17 01:53:00
7:53 PM,45.0,35.1,68,30.14,7.0,SSW,3.5,-,N/A,,Partly Cloudy,200,2012-10-17 02:53:00
8:53 PM,37.9,35.1,89,30.17,7.0,Calm,Calm,-,N/A,,Clear,0,2012-10-17 03:53:00
9:53 PM,39.9,34.0,79,30.17,7.0,ENE,3.5,-,N/A,,Clear,70,2012-10-17 04:53:00
10:53 PM,37.0,33.1,86,30.20,10.0,North,3.5,-,N/A,,Clear,360,2012-10-17 05:53:00
11:53 PM,37.0,32.0,82,30.20,10.0,NW,3.5,-,N/A,,Clear,320,2012-10-17 06:53:00